N395T KBUF-KISP

Flight info

Callsign N395T
Flight time 1h 4m
Altitude 23000
Route BUF VIEEW HUO CCC
Aircraft PC12/L-SDFGRWY/S

Departure

Time 2026-04-28 21:17
Airport Buffalo Niagara International Airport (KBUF)

Arrival

Time 2026-04-28 22:22
Airport Long Island MacArthur Airport (KISP)
Time Latitude Longitude Altitude Speed Heading
2026-04-28 21:08 42.94713 -78.73445 709 ft 0 kts 296°
2026-04-28 21:13 42.94714 -78.73447 709 ft 1 kts 296°
2026-04-28 21:13 42.94716 -78.73478 704 ft 5 kts 232°
2026-04-28 21:14 42.94684 -78.73507 708 ft 6 kts 235°
2026-04-28 21:14 42.94663 -78.73561 700 ft 8 kts 177°
2026-04-28 21:14 42.94630 -78.73514 703 ft 7 kts 114°
2026-04-28 21:14 42.94584 -78.73498 705 ft 11 kts 179°
2026-04-28 21:15 42.94496 -78.73497 708 ft 13 kts 180°
2026-04-28 21:15 42.94415 -78.73496 699 ft 11 kts 179°
2026-04-28 21:15 42.94343 -78.73493 703 ft 9 kts 171°
2026-04-28 21:15 42.94301 -78.73447 702 ft 10 kts 127°
2026-04-28 21:16 42.94258 -78.73371 705 ft 10 kts 128°
2026-04-28 21:16 42.94218 -78.73302 700 ft 8 kts 128°
2026-04-28 21:16 42.94176 -78.73227 711 ft 16 kts 127°
2026-04-28 21:16 42.94029 -78.72959 712 ft 60 kts 127°
2026-04-28 21:17 42.93687 -78.72338 776 ft 96 kts 127°
2026-04-28 21:17 42.93273 -78.71515 1080 ft 117 kts 128°
2026-04-28 21:17 42.92788 -78.70449 1425 ft 144 kts 127°
2026-04-28 21:17 42.92243 -78.69195 1927 ft 160 kts 126°
2026-04-28 21:18 42.91738 -78.67815 2597 ft 164 kts 121°
2026-04-28 21:18 42.91230 -78.66296 2941 ft 185 kts 122°
2026-04-28 21:18 42.90656 -78.64663 3283 ft 195 kts 122°
2026-04-28 21:18 42.90071 -78.62979 3618 ft 203 kts 121°
2026-04-28 21:19 42.89455 -78.61184 3980 ft 208 kts 121°
2026-04-28 21:19 42.88837 -78.59381 4327 ft 212 kts 121°
2026-04-28 21:19 42.88210 -78.57556 4674 ft 213 kts 121°
2026-04-28 21:19 42.87580 -78.55725 5029 ft 214 kts 122°
2026-04-28 21:20 42.86955 -78.53910 5374 ft 214 kts 122°
2026-04-28 21:20 42.86321 -78.52069 5750 ft 215 kts 123°
2026-04-28 21:20 42.85684 -78.50221 6132 ft 216 kts 122°
2026-04-28 21:20 42.85042 -78.48363 6503 ft 217 kts 122°
2026-04-28 21:21 42.84399 -78.46500 6861 ft 218 kts 122°
2026-04-28 21:21 42.83747 -78.44613 7227 ft 220 kts 122°
2026-04-28 21:21 42.83096 -78.42728 7588 ft 221 kts 122°
2026-04-28 21:21 42.82436 -78.40823 7963 ft 224 kts 122°
2026-04-28 21:22 42.81768 -78.38894 8343 ft 228 kts 122°
2026-04-28 21:22 42.81086 -78.36925 8724 ft 230 kts 122°
2026-04-28 21:22 42.80400 -78.34946 9110 ft 232 kts 121°
2026-04-28 21:22 42.79942 -78.33625 9370 ft 233 kts 121°
2026-04-28 21:23 42.79010 -78.30940 9893 ft 235 kts 121°
2026-04-28 21:23 42.78307 -78.28916 10247 ft 237 kts 121°
2026-04-28 21:23 42.77599 -78.26880 10601 ft 239 kts 121°
2026-04-28 21:23 42.76893 -78.24852 10966 ft 241 kts 121°
2026-04-28 21:24 42.76171 -78.22779 11308 ft 244 kts 120°
2026-04-28 21:24 42.75440 -78.20683 11641 ft 246 kts 120°
2026-04-28 21:24 42.74703 -78.18569 11961 ft 249 kts 120°
2026-04-28 21:24 42.73957 -78.16432 12291 ft 250 kts 120°
2026-04-28 21:25 42.73208 -78.14288 12626 ft 252 kts 119°
2026-04-28 21:25 42.72453 -78.12129 12966 ft 252 kts 119°
2026-04-28 21:25 42.71696 -78.09964 13301 ft 254 kts 119°
2026-04-28 21:25 42.70936 -78.07795 13626 ft 255 kts 118°
2026-04-28 21:26 42.70172 -78.05615 13930 ft 255 kts 118°
2026-04-28 21:26 42.69408 -78.03437 14208 ft 255 kts 118°
2026-04-28 21:26 42.68644 -78.01258 14496 ft 255 kts 119°
2026-04-28 21:26 42.67886 -77.99096 14863 ft 252 kts 119°
2026-04-28 21:27 42.67135 -77.96958 15226 ft 250 kts 119°
2026-04-28 21:27 42.66395 -77.94857 15588 ft 249 kts 119°
2026-04-28 21:27 42.65639 -77.92709 15949 ft 250 kts 119°
2026-04-28 21:27 42.64891 -77.90590 16195 ft 254 kts 119°
2026-04-28 21:28 42.64123 -77.88414 16450 ft 257 kts 120°
2026-04-28 21:28 42.63346 -77.86210 16715 ft 259 kts 120°
2026-04-28 21:28 42.62562 -77.83990 16961 ft 261 kts 120°
2026-04-28 21:28 42.61782 -77.81782 17215 ft 263 kts 120°
2026-04-28 21:29 42.60980 -77.79514 17479 ft 263 kts 120°
2026-04-28 21:29 42.60186 -77.77270 17743 ft 264 kts 120°
2026-04-28 21:29 42.59388 -77.75019 18009 ft 265 kts 120°
2026-04-28 21:29 42.58602 -77.72801 18271 ft 265 kts 120°
2026-04-28 21:30 42.57798 -77.70536 18516 ft 266 kts 120°
2026-04-28 21:30 42.56994 -77.68272 18744 ft 267 kts 120°
2026-04-28 21:30 42.56182 -77.65988 18980 ft 268 kts 120°
2026-04-28 21:30 42.55371 -77.63707 19212 ft 268 kts 121°
2026-04-28 21:31 42.54559 -77.61426 19452 ft 268 kts 121°
2026-04-28 21:31 42.53748 -77.59150 19692 ft 269 kts 121°
2026-04-28 21:31 42.52934 -77.56868 19938 ft 269 kts 121°
2026-04-28 21:31 42.52118 -77.54581 20182 ft 269 kts 121°
2026-04-28 21:32 42.51300 -77.52291 20428 ft 269 kts 121°
2026-04-28 21:32 42.50483 -77.50006 20680 ft 270 kts 121°
2026-04-28 21:32 42.49662 -77.47711 20936 ft 270 kts 121°
2026-04-28 21:32 42.48841 -77.45419 21188 ft 271 kts 121°
2026-04-28 21:33 42.48019 -77.43123 21444 ft 271 kts 121°
2026-04-28 21:33 42.47195 -77.40826 21701 ft 271 kts 121°
2026-04-28 21:33 42.46370 -77.38528 21921 ft 273 kts 121°
2026-04-28 21:33 42.45537 -77.36215 22052 ft 278 kts 121°
2026-04-28 21:34 42.44688 -77.33854 22187 ft 282 kts 121°
2026-04-28 21:34 42.43825 -77.31452 22323 ft 284 kts 121°
2026-04-28 21:34 42.42956 -77.29040 22457 ft 286 kts 121°
2026-04-28 21:34 42.42087 -77.26629 22587 ft 287 kts 121°
2026-04-28 21:35 42.41206 -77.24188 22717 ft 288 kts 121°
2026-04-28 21:35 42.40611 -77.22539 22808 ft 288 kts 121°
2026-04-28 21:36 42.35979 -77.09743 23044 ft 298 kts 121°
2026-04-28 21:36 42.35064 -77.07220 23043 ft 298 kts 121°
2026-04-28 21:37 42.34153 -77.04712 23044 ft 297 kts 122°
2026-04-28 21:37 42.33241 -77.02203 23050 ft 297 kts 121°
2026-04-28 21:37 42.32330 -76.99699 23055 ft 297 kts 121°
2026-04-28 21:37 42.31417 -76.97195 23053 ft 297 kts 122°
2026-04-28 21:38 42.30517 -76.94724 23058 ft 297 kts 122°
2026-04-28 21:38 42.29604 -76.92220 23056 ft 297 kts 122°
2026-04-28 21:38 42.28691 -76.89721 23052 ft 296 kts 122°
2026-04-28 21:38 42.27779 -76.87227 23059 ft 296 kts 122°
2026-04-28 21:39 42.26868 -76.84735 23062 ft 296 kts 122°
2026-04-28 21:39 42.25955 -76.82243 23060 ft 296 kts 122°
2026-04-28 21:39 42.25040 -76.79746 23060 ft 297 kts 122°
2026-04-28 21:39 42.24125 -76.77252 23057 ft 297 kts 122°
2026-04-28 21:40 42.23206 -76.74750 23057 ft 297 kts 122°
2026-04-28 21:40 42.22286 -76.72245 23065 ft 297 kts 122°
2026-04-28 21:40 42.21368 -76.69747 23059 ft 297 kts 122°
2026-04-28 21:40 42.20450 -76.67254 23058 ft 297 kts 122°
2026-04-28 21:41 42.19529 -76.64755 23061 ft 297 kts 122°
2026-04-28 21:41 42.18609 -76.62260 23064 ft 297 kts 122°
2026-04-28 21:41 42.17689 -76.59766 23058 ft 297 kts 122°
2026-04-28 21:41 42.16767 -76.57271 23066 ft 297 kts 122°
2026-04-28 21:42 42.15845 -76.54777 23060 ft 297 kts 122°
2026-04-28 21:42 42.14927 -76.52297 23069 ft 296 kts 122°
2026-04-28 21:42 42.14005 -76.49808 23064 ft 296 kts 122°
2026-04-28 21:42 42.13085 -76.47326 23063 ft 296 kts 122°
2026-04-28 21:43 42.12166 -76.44843 23066 ft 296 kts 122°
2026-04-28 21:43 42.11248 -76.42369 23080 ft 295 kts 122°
2026-04-28 21:43 42.10341 -76.39930 23075 ft 295 kts 122°
2026-04-28 21:43 42.09418 -76.37456 23075 ft 295 kts 122°
2026-04-28 21:44 42.08501 -76.34994 23079 ft 295 kts 122°
2026-04-28 21:44 42.07584 -76.32532 23083 ft 295 kts 122°
2026-04-28 21:44 42.06664 -76.30065 23076 ft 295 kts 122°
2026-04-28 21:44 42.05745 -76.27603 23081 ft 295 kts 122°
2026-04-28 21:45 42.04823 -76.25136 23082 ft 295 kts 122°
2026-04-28 21:45 42.03904 -76.22676 23081 ft 294 kts 122°
2026-04-28 21:45 42.02985 -76.20221 23083 ft 294 kts 122°
2026-04-28 21:45 42.02068 -76.17771 23088 ft 293 kts 122°
2026-04-28 21:46 42.01149 -76.15321 23084 ft 293 kts 122°
2026-04-28 21:46 42.00229 -76.12870 23086 ft 293 kts 122°
2026-04-28 21:46 41.99312 -76.10428 23083 ft 293 kts 122°
2026-04-28 21:46 41.98394 -76.07984 23084 ft 293 kts 122°
2026-04-28 21:47 41.97475 -76.05541 23085 ft 293 kts 122°
2026-04-28 21:47 41.96557 -76.03102 23089 ft 292 kts 122°
2026-04-28 21:47 41.95639 -76.00668 23085 ft 292 kts 122°
2026-04-28 21:47 41.94723 -75.98238 23091 ft 291 kts 122°
2026-04-28 21:48 41.93807 -75.95811 23095 ft 292 kts 122°
2026-04-28 21:48 41.92888 -75.93379 23093 ft 292 kts 122°
2026-04-28 21:48 41.91982 -75.90983 23094 ft 291 kts 122°
2026-04-28 21:48 41.91066 -75.88563 23093 ft 291 kts 122°
2026-04-28 21:49 41.90149 -75.86141 23096 ft 291 kts 122°
2026-04-28 21:49 41.89234 -75.83725 23105 ft 290 kts 122°
2026-04-28 21:49 41.88322 -75.81322 23108 ft 290 kts 122°
2026-04-28 21:49 41.87401 -75.78897 23108 ft 290 kts 122°
2026-04-28 21:50 41.86484 -75.76482 23105 ft 290 kts 122°
2026-04-28 21:50 41.85567 -75.74071 23113 ft 290 kts 122°
2026-04-28 21:50 41.84650 -75.71663 23111 ft 289 kts 122°
2026-04-28 21:50 41.83744 -75.69285 23116 ft 289 kts 122°
2026-04-28 21:51 41.82818 -75.66856 23118 ft 289 kts 122°
2026-04-28 21:51 41.81903 -75.64457 23117 ft 289 kts 122°
2026-04-28 21:51 41.80987 -75.62059 23117 ft 289 kts 122°
2026-04-28 21:51 41.80070 -75.59660 23116 ft 289 kts 122°
2026-04-28 21:52 41.79155 -75.57267 23123 ft 289 kts 122°
2026-04-28 21:52 41.78237 -75.54872 23123 ft 289 kts 122°
2026-04-28 21:52 41.77330 -75.52504 23122 ft 289 kts 122°
2026-04-28 21:52 41.76411 -75.50107 23124 ft 288 kts 122°
2026-04-28 21:53 41.75496 -75.47722 23125 ft 288 kts 122°
2026-04-28 21:53 41.74579 -75.45337 23122 ft 288 kts 122°
2026-04-28 21:53 41.73659 -75.42942 23125 ft 288 kts 122°
2026-04-28 21:53 41.72741 -75.40557 23132 ft 288 kts 122°
2026-04-28 21:54 41.71824 -75.38174 23131 ft 288 kts 122°
2026-04-28 21:54 41.70903 -75.35785 23133 ft 288 kts 122°
2026-04-28 21:54 41.69985 -75.33404 23130 ft 288 kts 122°
2026-04-28 21:54 41.69067 -75.31026 23136 ft 288 kts 122°
2026-04-28 21:55 41.68157 -75.28673 23135 ft 288 kts 122°
2026-04-28 21:55 41.67235 -75.26287 23137 ft 288 kts 122°
2026-04-28 21:55 41.66315 -75.23910 23138 ft 288 kts 122°
2026-04-28 21:55 41.65395 -75.21534 23135 ft 288 kts 122°
2026-04-28 21:56 41.64475 -75.19162 23137 ft 287 kts 122°
2026-04-28 21:56 41.63555 -75.16789 23136 ft 287 kts 122°
2026-04-28 21:56 41.62634 -75.14416 23136 ft 287 kts 122°
2026-04-28 21:56 41.61712 -75.12045 23130 ft 287 kts 122°
2026-04-28 21:57 41.60790 -75.09673 23138 ft 287 kts 122°
2026-04-28 21:57 41.59870 -75.07309 23134 ft 287 kts 122°
2026-04-28 21:57 41.58947 -75.04940 23135 ft 287 kts 122°
2026-04-28 21:57 41.58037 -75.02606 23131 ft 287 kts 122°
2026-04-28 21:58 41.57114 -75.00239 23133 ft 287 kts 122°
2026-04-28 21:58 41.56190 -74.97872 23133 ft 287 kts 122°
2026-04-28 21:58 41.55257 -74.95487 22954 ft 293 kts 122°
2026-04-28 21:58 41.54306 -74.93058 22742 ft 295 kts 122°
2026-04-28 21:59 41.53356 -74.90629 22532 ft 295 kts 122°
2026-04-28 21:59 41.52406 -74.88202 22325 ft 295 kts 122°
2026-04-28 21:59 41.51453 -74.85772 22112 ft 295 kts 122°
2026-04-28 22:00 41.49555 -74.80938 21703 ft 294 kts 122°
2026-04-28 22:00 41.48608 -74.78527 21502 ft 293 kts 121°
2026-04-28 22:00 41.47663 -74.76125 21295 ft 292 kts 121°
2026-04-28 22:00 41.46734 -74.73764 21100 ft 291 kts 121°
2026-04-28 22:01 41.45795 -74.71380 20899 ft 290 kts 121°
2026-04-28 22:01 41.44855 -74.68998 20708 ft 290 kts 121°
2026-04-28 22:01 41.43918 -74.66622 20509 ft 289 kts 121°
2026-04-28 22:01 41.42983 -74.64256 20309 ft 288 kts 121°
2026-04-28 22:02 41.42049 -74.61892 20117 ft 288 kts 121°
2026-04-28 22:02 41.41119 -74.59530 19922 ft 287 kts 120°
2026-04-28 22:02 41.40403 -74.57043 19726 ft 288 kts 111°
2026-04-28 22:02 41.39765 -74.54505 19536 ft 288 kts 111°
2026-04-28 22:03 41.39120 -74.51976 19340 ft 288 kts 111°
2026-04-28 22:03 41.38464 -74.49457 19152 ft 288 kts 111°
2026-04-28 22:03 41.37805 -74.46934 18962 ft 288 kts 111°
2026-04-28 22:03 41.37149 -74.44407 18764 ft 289 kts 111°
2026-04-28 22:04 41.36501 -74.41912 18595 ft 289 kts 111°
2026-04-28 22:04 41.35836 -74.39355 18400 ft 289 kts 111°
2026-04-28 22:04 41.35186 -74.36858 18200 ft 289 kts 111°
2026-04-28 22:04 41.34532 -74.34349 17985 ft 290 kts 111°
2026-04-28 22:05 41.33857 -74.31766 17564 ft 295 kts 111°
2026-04-28 22:05 41.33179 -74.29172 17152 ft 298 kts 111°
2026-04-28 22:05 41.32496 -74.26558 16744 ft 300 kts 111°
2026-04-28 22:05 41.31810 -74.23935 16340 ft 300 kts 111°
2026-04-28 22:06 41.31122 -74.21310 15940 ft 299 kts 110°
2026-04-28 22:06 41.30436 -74.18697 15549 ft 299 kts 110°
2026-04-28 22:06 41.29754 -74.16098 15176 ft 297 kts 110°
2026-04-28 22:06 41.29074 -74.13512 14823 ft 295 kts 110°
2026-04-28 22:07 41.28399 -74.10947 14471 ft 294 kts 110°
2026-04-28 22:07 41.27726 -74.08388 14122 ft 293 kts 110°
2026-04-28 22:07 41.27054 -74.05842 13752 ft 291 kts 110°
2026-04-28 22:07 41.26392 -74.03334 13364 ft 289 kts 110°
2026-04-28 22:08 41.25728 -74.00821 12981 ft 287 kts 110°
2026-04-28 22:08 41.25068 -73.98326 12585 ft 284 kts 110°
2026-04-28 22:08 41.24414 -73.95854 12215 ft 280 kts 110°
2026-04-28 22:08 41.23770 -73.93428 11837 ft 277 kts 110°
2026-04-28 22:09 41.22999 -73.91150 11464 ft 271 kts 122°
2026-04-28 22:09 41.21958 -73.89072 11119 ft 270 kts 127°
2026-04-28 22:09 41.20909 -73.87014 10756 ft 269 kts 125°
2026-04-28 22:09 41.19925 -73.84910 10396 ft 267 kts 123°
2026-04-28 22:10 41.18968 -73.82815 10038 ft 264 kts 124°
2026-04-28 22:10 41.18001 -73.80747 9649 ft 262 kts 125°
2026-04-28 22:10 41.17034 -73.78702 9256 ft 261 kts 124°
2026-04-28 22:10 41.16071 -73.76655 8870 ft 262 kts 124°
2026-04-28 22:11 41.15110 -73.74606 8486 ft 262 kts 124°
2026-04-28 22:11 41.14147 -73.72555 8107 ft 261 kts 124°
2026-04-28 22:11 41.13185 -73.70512 7732 ft 260 kts 124°
2026-04-28 22:11 41.12245 -73.68517 7368 ft 259 kts 124°
2026-04-28 22:12 41.11288 -73.66486 7002 ft 259 kts 124°
2026-04-28 22:12 41.10330 -73.64453 6640 ft 258 kts 124°
2026-04-28 22:12 41.09379 -73.62436 6257 ft 257 kts 124°
2026-04-28 22:12 41.08428 -73.60421 5872 ft 257 kts 124°
2026-04-28 22:13 41.07487 -73.58428 5588 ft 252 kts 124°
2026-04-28 22:13 41.06821 -73.57017 5442 ft 248 kts 124°
2026-04-28 22:13 41.05976 -73.55229 5257 ft 245 kts 124°
2026-04-28 22:14 41.05077 -73.53328 5152 ft 240 kts 124°
2026-04-28 22:14 41.04216 -73.51506 5149 ft 234 kts 124°
2026-04-28 22:14 41.03343 -73.49664 5068 ft 234 kts 124°
2026-04-28 22:14 41.02464 -73.47815 4867 ft 238 kts 124°
2026-04-28 22:15 41.01521 -73.46072 4666 ft 237 kts 129°
2026-04-28 22:15 41.00499 -73.44354 4461 ft 237 kts 130°
2026-04-28 22:15 40.99837 -73.43210 4329 ft 236 kts 129°
2026-04-28 22:15 40.98857 -73.41463 4195 ft 235 kts 128°
2026-04-28 22:16 40.97894 -73.39731 4065 ft 232 kts 128°
2026-04-28 22:16 40.96591 -73.37409 3908 ft 241 kts 128°
2026-04-28 22:16 40.95910 -73.36201 3803 ft 243 kts 128°
2026-04-28 22:16 40.94913 -73.34431 3648 ft 243 kts 128°
2026-04-28 22:17 40.93888 -73.32607 3502 ft 243 kts 128°
2026-04-28 22:17 40.92897 -73.30859 3308 ft 235 kts 128°
2026-04-28 22:17 40.91907 -73.29165 2931 ft 230 kts 129°
2026-04-28 22:17 40.90931 -73.27535 2695 ft 222 kts 129°
2026-04-28 22:18 40.89979 -73.25946 2433 ft 218 kts 129°
2026-04-28 22:18 40.89056 -73.24399 2290 ft 210 kts 129°
2026-04-28 22:18 40.88174 -73.22912 2114 ft 205 kts 129°
2026-04-28 22:18 40.87284 -73.21422 1867 ft 204 kts 129°
2026-04-28 22:19 40.86478 -73.20052 1663 ft 176 kts 130°
2026-04-28 22:19 40.85767 -73.18837 1504 ft 167 kts 130°
2026-04-28 22:19 40.85043 -73.17595 1318 ft 167 kts 130°
2026-04-28 22:19 40.84366 -73.16456 1080 ft 145 kts 132°
2026-04-28 22:20 40.83772 -73.15490 995 ft 125 kts 133°
2026-04-28 22:20 40.83237 -73.14708 962 ft 105 kts 136°
2026-04-28 22:20 40.82790 -73.14087 857 ft 91 kts 139°
2026-04-28 22:20 40.82345 -73.13516 710 ft 89 kts 139°
2026-04-28 22:21 40.81891 -73.12926 610 ft 92 kts 137°
2026-04-28 22:21 40.81458 -73.12340 451 ft 85 kts 137°
2026-04-28 22:21 40.81041 -73.11803 331 ft 84 kts 136°
2026-04-28 22:21 40.80638 -73.11277 210 ft 78 kts 136°
2026-04-28 22:22 40.80265 -73.10786 110 ft 71 kts 135°
2026-04-28 22:22 40.79959 -73.10386 95 ft 43 kts 135°
2026-04-28 22:22 40.79822 -73.10214 94 ft 15 kts 168°
2026-04-28 22:22 40.79755 -73.10275 93 ft 10 kts 233°
2026-04-28 22:23 40.79769 -73.10345 92 ft 14 kts 314°
2026-04-28 22:23 40.79856 -73.10459 91 ft 20 kts 315°
2026-04-28 22:23 40.79955 -73.10589 91 ft 17 kts 315°
2026-04-28 22:23 40.80018 -73.10679 91 ft 10 kts 287°
2026-04-28 22:24 40.79974 -73.10717 91 ft 9 kts 186°
2026-04-28 22:24 40.79905 -73.10720 91 ft 10 kts 179°
2026-04-28 22:24 40.79832 -73.10720 93 ft 10 kts 180°
2026-04-28 22:24 40.79804 -73.10793 91 ft 12 kts 269°
2026-04-28 22:25 40.79802 -73.10906 91 ft 6 kts 269°
2026-04-28 22:25 40.79826 -73.10905 91 ft 7 kts 94°
2026-04-28 22:25 40.79825 -73.10899 91 ft 0 kts 92°